STARLINK-32846, 62867

Orbit data source: Space-Track

STARLINK-32846, 62867 is a payload satellite owned by SpaceX/Seattle (US) in LEO that was launched on Sat, 01 Feb 2025 UTC via an FALCON 9 launch vehicle from the Air Force Western Test Range (AFWTR). Payload-class satellites include a variety of spacecraft equipped with specific instruments for various scientific and technological missions. These include communications satellites like Starlink; space stations such as the ISS; scientific satellites like the Hubble; Earth observation satellites from companies like Planet Labs, Umbra, and HawkEye 360; GPS; miniature CubeSats for education and research; and military/defense satellites.

Loading next visibility...
Identifier
62867, 2025-022P
Orbit
LEO
Last TLE update
9 hours ago
Origin
Manufacturer
SpaceX/Seattle
Mission
Operational Commercial Communications
Bus & Motor
STARLINK V2M, Unknown motor
Mass
730 kg wet, ~700 kg dry
Launch date (UTC)
2025-02-01 (3 months ago)
Launch vehicle
FALCON 9
Launch site
Air Force Western Test Range (AFWTR)
Object type
Payload
Rocket body
Debris
Shape & HBR
Box + 2 Pan, 29 m
Radar Cross Section
33.884 m², Large (>1 m²)

Expand to show TLE details & history

TLE from 9 hours ago
0 STARLINK-32846
1 62867U 25022P   25128.95275756  .00001473  00000-0  46787-4 0  9995
2 62867  53.1607 108.6169 0001110  85.2300 274.8831 15.39628409 16103
Epoch: 2025-05-08T22:51Z
Definitive object data (Epoch: 2025-05-08T22:51:58.253Z)
Latitude
-0.00006°
Longitude
-101.39173°
Altitude
448.046 km
Speed
7.645 km/s
True Right ascension
07h 14m 28s
True Declination
0° 00' 00"
Sunlit
Object was in daylight at TLE epoch
Visualization TLE readout
Latitude
-4.04739°
Longitude
-106.24493°
Altitude
448.739 km
Speed
7.644 km/s
Apparent Right ascension
05h 50m 56s
Apparent Declination
-22° 20' 41"
Sunlit
Object is in daylight
Visualization observer readout
Local Sidereal Time
16:20:38
Azimuth
305.839° NW
Elevation
-64.026°
Doppler factor
1
Orbital elements
Apogee altitude
448.222 km
Perigee altitude
446.707 km
Semi-major axis
6,825.602 km
Eccentricity
0.000111
Inclination
53.1607°
RAAN
108.6169°
Arg. of periapsis
85.23°
True anomaly
274.87043°
Mean anomaly
274.8831°
Eccentric anomaly
274.87676°
Mean motion
3.84886 °/min
BSTAR
0.000046787
Orbital period
93.53 mins
Loading maneuver chart data...
Loading SW <> Apogee altitude chart data...
Loading historical data...
Loading historical data...
Loading historical data...
Loading historical data...
Loading historical data...
Loading historical data...
Loading historical data...

STARLINK-32846 Visibility forecast

Observer location: undefined°, undefined°

Span
Click to sort rows by Start time (UTC) header in descending order
Start Az.
Max El. time (UTC)
Max El. Az.
Max El.
End time (UTC)
End Az.
6 mins2025-05-09 08:43:31.373Z299.421° NW2025-05-09 08:46:31.373Z229.267° WSW37.755°2025-05-09 08:49:31.373Z149.999° SSE
5 mins2025-05-10 01:33:31.373Z248.466° W2025-05-10 01:35:31.373Z314.467° NW40.479°2025-05-10 01:38:31.373Z41.681° NE
5 mins2025-05-10 08:06:31.373Z302.741° NW2025-05-10 08:08:31.373Z165.284° S42.316°2025-05-10 08:11:31.373Z136.484° SSE
|